This is the latest recevied weather packets stored in our database for station/object DG1ROH. If no packets are shown the sender has not sent any weather packets the latest 10 day(s).
| Time | Temp. | Humidity | Pressure | Rain* | Wind** | Luminosity | Snow |
|---|---|---|---|---|---|---|---|
| 1777650124 | 23.33° C | 33% | 1025.3 hPa | 0 mm | - | 197 W/m² | - |
| 1777650004 | 23.33° C | 33% | 1025.3 hPa | 0 mm | - | 181 W/m² | - |
| 1777649883 | 23.33° C | 35% | 1025.3 hPa | 0 mm | - | 292 W/m² | - |
| 1777649763 | 23.33° C | 33% | 1025.4 hPa | 0 mm | - | 345 W/m² | - |
| 1777649644 | 23.33° C | 33% | 1025.4 hPa | 0 mm | - | 355 W/m² | - |
| 1777649524 | 23.33° C | 34% | 1025.4 hPa | 0 mm | - | 359 W/m² | - |
| 1777649404 | 23.33° C | 34% | 1025.5 hPa | 0 mm | - | 362 W/m² | - |
| 1777649283 | 23.33° C | 34% | 1025.4 hPa | 0 mm | - | 369 W/m² | - |
| 1777649164 | 23.33° C | 33% | 1025.5 hPa | 0 mm | - | 374 W/m² | - |
| 1777649044 | 23.33° C | 33% | 1025.4 hPa | 0 mm | - | 376 W/m² | - |
| 1777648923 | 23.33° C | 34% | 1025.5 hPa | 0 mm | - | 385 W/m² | - |
| 1777648802 | 23.33° C | 32% | 1025.5 hPa | 0 mm | - | 390 W/m² | - |
| 1777648683 | 23.89° C | 35% | 1025.5 hPa | 0 mm | - | 394 W/m² | - |
| 1777648443 | 23.33° C | 31% | 1025.5 hPa | 0 mm | - | 406 W/m² | - |
| 1777648323 | 23.89° C | 34% | 1025.6 hPa | 0 mm | - | 410 W/m² | - |
| 1777648203 | 23.89° C | 32% | 1025.6 hPa | 0 mm | - | 415 W/m² | - |
| 1777648082 | 23.89° C | 33% | 1025.7 hPa | 0 mm | - | 420 W/m² | - |
| 1777647963 | 23.89° C | 34% | 1025.7 hPa | 0 mm | - | 425 W/m² | - |
| 1777647843 | 23.89° C | 36% | 1025.7 hPa | 0 mm | - | 432 W/m² | - |
| 1777647722 | 23.89° C | 36% | 1025.6 hPa | 0 mm | - | 439 W/m² | - |
| 1777647603 | 23.33° C | 34% | 1025.7 hPa | 0 mm | - | 431 W/m² | - |
| 1777647483 | 23.89° C | 35% | 1025.7 hPa | 0 mm | - | 396 W/m² | - |
| 1777647362 | 23.89° C | 33% | 1025.7 hPa | 0 mm | - | 408 W/m² | - |
| 1777647242 | 23.89° C | 31% | 1025.8 hPa | 0 mm | - | 413 W/m² | - |
| 1777647123 | 24.44° C | 32% | 1025.7 hPa | 0 mm | - | 459 W/m² | - |
* Rain latest hour (hover to see other rain measurements)
** Current wind speed in m/s (hover to see current wind gust speed)